Stations météo

Publicité
Braemar, Grande-Bretagne (99089): Température de l'air & dewpoint: 11.02.2019 15:00:00 - 17.02.2019 15:00:00 (GMT)Braemar, Grande-Bretagne (99089): Température de l'air -20cm & Température de l'air -100cm: 11.02.2019 15:00:00 - 17.02.2019 15:00:00 (GMT)Braemar, Grande-Bretagne (99089): Quantités de précipitations: 11.02.2019 15:00:00 - 17.02.2019 15:00:00 (GMT)
Date & Time tt [°C] td [°C] tt -20cm [°C] tt -100cm [°C] rr [mm]
17.02.2019 15:00:00 8,1 4,9 - - 0,4
17.02.2019 14:00:00 8,0 5,7 - - 0,0
17.02.2019 13:00:00 8,5 5,5 - - 0,4
17.02.2019 12:00:00 9,1 5,0 - - 0,0
17.02.2019 11:00:00 - - - - 0,0
17.02.2019 10:00:00 8,5 4,7 - - 0,0
17.02.2019 09:00:00 8,4 4,6 3,9 3,2 0,0
17.02.2019 08:00:00 8,5 5,1 - - 0,0
17.02.2019 07:00:00 8,8 5,3 - - 0,0
17.02.2019 06:00:00 8,9 5,6 - - 0,0
17.02.2019 05:00:00 8,9 6,1 - - 0,0
17.02.2019 04:00:00 8,9 6,7 - - 0,4
17.02.2019 03:00:00 8,4 6,8 - - 0,2
17.02.2019 02:00:00 7,9 6,6 - - 0,2
17.02.2019 01:00:00 7,2 5,3 - - 0,0
17.02.2019 00:00:00 8,1 4,7 - - 0,0
16.02.2019 23:00:00 7,7 3,8 - - 0,0
16.02.2019 22:00:00 7,4 3,6 - - 0,0
16.02.2019 21:00:00 7,3 3,8 - - 0,0
16.02.2019 20:00:00 7,2 4,0 - - 0,0
16.02.2019 19:00:00 7,3 3,4 - - 0,0
16.02.2019 18:00:00 7,0 2,9 - - 0,0
16.02.2019 17:00:00 7,0 2,4 - - 0,0
16.02.2019 16:00:00 7,5 2,3 - - 0,0
16.02.2019 15:00:00 8,4 3,2 - - 0,0
16.02.2019 14:00:00 8,9 4,7 - - 0,0
16.02.2019 13:00:00 8,3 4,3 - - 0,0
16.02.2019 12:00:00 8,5 4,8 - - 0,0
16.02.2019 11:00:00 8,1 5,0 - - 0,0
16.02.2019 10:00:00 7,7 5,2 - - 0,0
16.02.2019 09:00:00 7,5 5,0 3,0 3,0 0,0
16.02.2019 08:00:00 7,2 5,2 - - 0,0
16.02.2019 07:00:00 6,9 4,5 - - 0,0
16.02.2019 06:00:00 7,3 4,7 - - 0,0
16.02.2019 05:00:00 7,3 5,2 - - 0,0
16.02.2019 04:00:00 6,3 4,8 - - 0,0
16.02.2019 03:00:00 6,6 5,0 - - 0,4
16.02.2019 02:00:00 7,2 4,9 - - 0,4
16.02.2019 01:00:00 8,6 5,9 - - 0,0
16.02.2019 00:00:00 8,0 6,1 - - 0,6
15.02.2019 23:00:00 7,1 5,7 - - 1,2
15.02.2019 22:00:00 7,8 4,8 - - 0,0
15.02.2019 21:00:00 9,2 5,8 - - 0,0
15.02.2019 20:00:00 9,0 5,1 - - 0,0
15.02.2019 19:00:00 9,0 4,6 - - 0,0
15.02.2019 18:00:00 9,5 4,2 - - 0,0
15.02.2019 17:00:00 10,0 3,5 - - 0,0
15.02.2019 16:00:00 9,4 3,2 - - 0,0
15.02.2019 15:00:00 11,0 3,2 - - 0,0
15.02.2019 14:00:00 10,3 3,2 - - 0,0
15.02.2019 13:00:00 10,6 0,5 - - 0,0
15.02.2019 12:00:00 10,5 -1,1 - - 0,0
15.02.2019 11:00:00 8,4 -3,6 - - 0,0
15.02.2019 10:00:00 7,8 -4,8 - - 0,0
15.02.2019 09:00:00 2,5 -4,1 2,7 2,9 0,0
15.02.2019 08:00:00 0,4 -3,5 - - 0,0
15.02.2019 07:00:00 -0,9 -5,0 - - 0,0
15.02.2019 06:00:00 2,1 -5,4 - - 0,0
15.02.2019 05:00:00 5,4 -6,5 - - 0,0
15.02.2019 04:00:00 6,9 -6,8 - - 0,0
15.02.2019 03:00:00 2,2 -2,6 - - 0,0
15.02.2019 02:00:00 2,7 -1,4 - - 0,0
15.02.2019 01:00:00 2,7 -0,4 - - 0,0
15.02.2019 00:00:00 3,3 1,7 - - 0,0
14.02.2019 23:00:00 3,8 1,7 - - 0,0
14.02.2019 22:00:00 4,6 2,3 - - 0,0
14.02.2019 21:00:00 3,5 2,3 - - 0,0
14.02.2019 20:00:00 4,7 2,6 - - 0,0
14.02.2019 19:00:00 6,3 3,7 - - 0,0
14.02.2019 18:00:00 6,7 3,8 - - 0,0
14.02.2019 17:00:00 7,4 4,3 - - 0,0
14.02.2019 16:00:00 9,4 5,3 - - 0,0
14.02.2019 15:00:00 9,1 6,3 - - 0,0
14.02.2019 14:00:00 8,7 6,4 - - 0,0
14.02.2019 13:00:00 9,3 6,4 - - 0,0
14.02.2019 12:00:00 9,4 6,7 - - 0,0
14.02.2019 11:00:00 8,3 6,2 - - 0,0
14.02.2019 10:00:00 8,2 6,0 - - 0,0
14.02.2019 09:00:00 8,1 5,6 2,0 2,7 0,0
14.02.2019 08:00:00 7,4 5,4 - - 0,0
14.02.2019 07:00:00 7,4 5,1 - - 0,0
14.02.2019 06:00:00 7,5 5,0 - - 0,0
14.02.2019 05:00:00 7,7 5,1 - - 0,0
14.02.2019 04:00:00 8,3 5,2 - - 0,0
14.02.2019 03:00:00 8,0 5,0 - - 0,0
14.02.2019 02:00:00 8,0 5,0 - - 0,0
14.02.2019 01:00:00 7,7 4,9 - - 0,0
14.02.2019 00:00:00 7,8 4,6 - - 0,0
13.02.2019 23:00:00 8,1 4,5 - - 0,0
13.02.2019 22:00:00 8,2 4,4 - - 0,0
13.02.2019 21:00:00 7,6 4,7 - - 0,0
13.02.2019 20:00:00 7,9 4,9 - - 0,0
13.02.2019 19:00:00 8,0 4,9 - - 0,0
13.02.2019 18:00:00 8,1 5,0 - - 0,0
13.02.2019 17:00:00 8,0 5,5 - - 0,0
13.02.2019 16:00:00 8,4 5,5 - - 0,0
13.02.2019 15:00:00 8,3 5,9 - - 0,0
13.02.2019 14:00:00 9,0 5,8 - - 0,0
13.02.2019 13:00:00 8,9 6,0 - - 0,0
13.02.2019 12:00:00 8,5 5,9 - - 0,0
13.02.2019 11:00:00 8,1 5,9 - - 0,2
13.02.2019 10:00:00 8,6 6,2 - - 0,0
13.02.2019 09:00:00 8,0 5,6 1,0 2,5 0,0
13.02.2019 08:00:00 7,9 5,6 - - 0,0
13.02.2019 07:00:00 7,4 5,7 - - 0,0
13.02.2019 06:00:00 7,1 5,8 - - 0,0
13.02.2019 05:00:00 6,6 5,4 - - 0,0
13.02.2019 04:00:00 2,4 1,2 - - 0,0
13.02.2019 03:00:00 1,5 0,1 - - 0,0
13.02.2019 02:00:00 2,9 0,1 - - 0,0
13.02.2019 01:00:00 3,0 0,1 - - 0,0
13.02.2019 00:00:00 5,3 1,5 - - 0,0
12.02.2019 23:00:00 5,7 2,4 - - 0,0
12.02.2019 22:00:00 6,3 1,9 - - 0,0
12.02.2019 21:00:00 6,7 1,5 - - 0,0
12.02.2019 20:00:00 5,7 0,9 - - 0,0
12.02.2019 19:00:00 6,5 1,3 - - 0,0
12.02.2019 18:00:00 7,1 2,9 - - 0,0
12.02.2019 17:00:00 8,2 3,6 - - 0,0
12.02.2019 16:00:00 9,6 4,5 - - 0,0
12.02.2019 15:00:00 9,9 6,0 - - 0,0
12.02.2019 14:00:00 9,3 6,2 - - 0,0
12.02.2019 13:00:00 9,4 6,3 - - 0,0
12.02.2019 12:00:00 9,2 5,9 - - 0,0
12.02.2019 11:00:00 8,0 5,2 - - 0,0
12.02.2019 10:00:00 6,7 4,7 - - 0,0
12.02.2019 09:00:00 6,4 4,3 0,7 2,5 0,0
12.02.2019 08:00:00 6,9 4,1 - - 0,0
12.02.2019 07:00:00 6,0 3,6 - - 0,0
12.02.2019 06:00:00 6,0 3,5 - - 0,0
12.02.2019 05:00:00 6,0 3,1 - - 0,0
12.02.2019 04:00:00 5,2 3,1 - - 0,0
12.02.2019 03:00:00 4,6 2,8 - - 0,0
12.02.2019 02:00:00 3,8 1,8 - - 0,0
12.02.2019 01:00:00 3,7 1,5 - - 0,0
12.02.2019 00:00:00 3,1 1,0 - - 0,0
11.02.2019 23:00:00 2,2 0,6 - - 0,0
11.02.2019 22:00:00 1,9 0,2 - - 0,0
11.02.2019 21:00:00 2,5 -1,2 - - 0,0
11.02.2019 20:00:00 2,3 -1,8 - - 0,0
11.02.2019 19:00:00 2,1 -2,1 - - 0,0
11.02.2019 18:00:00 2,3 -1,9 - - 0,0
11.02.2019 17:00:00 2,6 -1,5 - - 0,0
11.02.2019 16:00:00 3,2 -1,8 - - 0,0
11.02.2019 15:00:00 3,5 -1,3 - - 0,0

tt = Température de l'air
td = dewpoint
tt -20cm = Température de l'air -20cm
tt -100cm = Température de l'air -100cm
rr = Quantités de précipitations

stations d'obs. à proximité